TimeEDT,TemperatureF,Dew PointF,Humidity,Sea Level PressureIn,VisibilityMPH,Wind Direction,Wind SpeedMPH,Gust SpeedMPH,PrecipitationIn,Events,Conditions,WindDirDegrees,DateUTC
12:54 AM,62.1,60.1,93,30.14,4.0,NW,3.5,-,N/A,,Clear,320,2006-06-29 04:54:00
1:54 AM,61.0,59.0,93,30.14,5.0,NW,5.8,-,N/A,,Clear,320,2006-06-29 05:54:00
2:54 AM,60.1,57.9,93,30.13,3.0,Calm,Calm,-,N/A,,Clear,0,2006-06-29 06:54:00
3:18 AM,59.0,57.2,94,30.21,1.8,Calm,Calm,-,N/A,,Clear,0,2006-06-29 07:18:00
3:29 AM,59.0,57.2,94,30.20,2.0,Calm,Calm,-,N/A,,Clear,0,2006-06-29 07:29:00
3:54 AM,59.0,57.0,93,30.12,4.0,Calm,Calm,-,N/A,,Clear,0,2006-06-29 07:54:00
4:54 AM,57.0,55.9,96,30.14,2.5,Calm,Calm,-,N/A,,Clear,0,2006-06-29 08:54:00
5:02 AM,57.2,55.4,94,30.20,5.0,Calm,Calm,-,N/A,,Clear,0,2006-06-29 09:02:00
5:19 AM,57.2,55.4,94,30.21,1.5,Calm,Calm,-,N/A,,Clear,0,2006-06-29 09:19:00
5:22 AM,57.2,55.4,94,30.21,0.8,Calm,Calm,-,N/A,,Clear,0,2006-06-29 09:22:00
5:35 AM,57.2,55.4,94,30.21,1.8,Calm,Calm,-,N/A,,Clear,0,2006-06-29 09:35:00
5:40 AM,57.2,55.4,94,30.21,3.0,Calm,Calm,-,N/A,,Clear,0,2006-06-29 09:40:00
5:54 AM,55.9,55.0,97,30.14,3.0,Calm,Calm,-,N/A,,Clear,0,2006-06-29 09:54:00
6:01 AM,55.4,55.4,100,30.21,2.0,Calm,Calm,-,N/A,,Clear,0,2006-06-29 10:01:00
6:27 AM,55.4,55.4,100,30.21,1.0,Calm,Calm,-,N/A,,Clear,0,2006-06-29 10:27:00
6:34 AM,55.4,53.6,94,30.22,6.0,Calm,Calm,-,N/A,,Clear,0,2006-06-29 10:34:00
6:54 AM,55.9,55.0,97,30.16,6.0,Calm,Calm,-,N/A,,Clear,0,2006-06-29 10:54:00
7:54 AM,61.0,57.9,90,30.16,6.0,Calm,Calm,-,N/A,,Clear,0,2006-06-29 11:54:00
8:54 AM,66.0,60.1,81,30.16,6.0,NNW,4.6,-,N/A,,Haze,330,2006-06-29 12:54:00
9:54 AM,72.0,59.0,64,30.15,9.0,North,8.1,-,N/A,,Clear,360,2006-06-29 13:54:00
10:54 AM,75.0,57.0,53,30.15,10.0,North,10.4,-,N/A,,Clear,350,2006-06-29 14:54:00
11:54 AM,77.0,57.9,52,30.15,10.0,NNW,9.2,-,N/A,,Clear,340,2006-06-29 15:54:00
12:54 PM,80.1,55.9,43,30.14,10.0,NNW,12.7,17.3,N/A,,Clear,340,2006-06-29 16:54:00
1:54 PM,80.1,53.1,39,30.12,10.0,NNW,8.1,-,N/A,,Clear,330,2006-06-29 17:54:00
2:54 PM,81.0,54.0,39,30.11,10.0,North,9.2,-,N/A,,Clear,350,2006-06-29 18:54:00
3:54 PM,82.0,55.0,39,30.10,10.0,NNW,9.2,-,N/A,,Clear,330,2006-06-29 19:54:00
4:54 PM,82.0,54.0,38,30.08,10.0,North,9.2,-,N/A,,Clear,350,2006-06-29 20:54:00
5:54 PM,82.0,54.0,38,30.08,10.0,North,11.5,-,N/A,,Clear,350,2006-06-29 21:54:00
6:54 PM,81.0,52.0,36,30.06,10.0,NW,6.9,-,N/A,,Clear,320,2006-06-29 22:54:00
7:54 PM,77.0,55.0,47,30.07,10.0,NW,5.8,-,N/A,,Mostly Cloudy,310,2006-06-29 23:54:00
8:54 PM,73.0,55.9,55,30.07,10.0,NNW,4.6,-,N/A,,Mostly Cloudy,330,2006-06-30 00:54:00
9:54 PM,70.0,57.0,63,30.09,10.0,NNW,3.5,-,N/A,,Clear,330,2006-06-30 01:54:00
10:54 PM,66.9,57.9,73,30.09,10.0,Calm,Calm,-,N/A,,Clear,0,2006-06-30 02:54:00
11:54 PM,68.0,55.9,65,30.10,10.0,North,4.6,-,N/A,,Clear,360,2006-06-30 03:54:00